Date String (YYYY-MM-DD hh:mm:ss) UTC,Instrument flags,Ambient pressure (hPa),Sample flow (lpm),Bypass flow (lpm),Sample temperature (°C),Ambient temperature (°C),ASC tube jacket temperature (°C),LED temperature (°C),Box temperature (°C),Sample RH (%),Span deviation,Mass concentration (μg/m³),Mass concentration (μg/m³),Mass concentration (μg/m³)
DateTimeUTC,F1_M11,P_M11,Q1_M11,Q2_M11,T1_M11,T2_M11,T3_M11,T4_M11,T5_M11,U1_M11,ZSPAN_M11,X0_M11,X2_M11,X1_M11
2022-07-15 10:00:00,,0831.7,4.99,0.00,29.5,27.6,00.0,38.3,31.3,31.6,0000.0,0009.53,0004.87,0004.10
2022-07-15 10:01:00,,0831.7,5.00,0.00,29.5,27.7,00.0,38.3,31.3,31.3,0000.0,0009.51,0004.88,0004.09
2022-07-15 10:02:00,,0831.7,5.00,0.00,29.5,27.9,00.0,38.3,31.3,31.1,0000.0,0009.51,0004.90,0004.08
2022-07-15 10:03:00,,0831.7,5.00,0.00,29.5,28.0,00.0,38.3,31.4,30.9,0000.0,0009.26,0004.91,0004.07
2022-07-15 10:04:00,,0831.7,5.00,0.00,29.5,28.1,00.0,38.3,31.4,30.5,0000.0,0009.28,0004.96,0004.06
2022-07-15 10:05:00,,0831.8,5.00,0.00,29.6,28.2,00.0,38.4,31.5,30.2,0000.0,0009.52,0004.95,0004.06
2022-07-15 10:06:00,,0831.8,5.00,0.00,29.6,28.3,00.0,38.4,31.5,30.2,0000.0,0009.93,0004.96,0004.06
2022-07-15 10:07:00,,0831.7,5.00,0.00,29.6,28.4,00.0,38.4,31.5,30.1,0000.0,0010.02,0004.94,0004.05
2022-07-15 10:08:00,,0831.7,4.99,0.00,29.6,28.5,00.0,38.4,31.6,30.4,0000.0,0009.97,0004.91,0004.05
2022-07-15 10:09:00,,0831.7,5.01,0.00,29.7,28.6,00.0,38.4,31.6,30.6,0000.0,0010.14,0004.94,0004.04
2022-07-15 10:10:00,,0831.7,5.00,0.00,29.7,28.6,00.0,38.4,31.6,30.2,0000.0,0010.17,0004.97,0004.04
2022-07-15 10:11:00,,0831.7,4.99,0.00,29.7,28.7,00.0,38.4,31.7,29.6,0000.0,0010.04,0004.96,0004.04
2022-07-15 10:12:00,,0831.7,5.00,0.00,29.8,28.7,00.0,38.5,31.7,29.1,0000.0,0010.05,0004.86,0004.02
2022-07-15 10:13:00,,0831.7,5.00,0.00,29.8,28.8,00.0,38.5,31.7,28.2,0000.0,0010.03,0004.81,0004.01
2022-07-15 10:14:00,,0831.7,5.00,0.00,29.8,28.3,00.0,38.4,31.7,28.0,0000.0,0009.94,0004.75,0003.99
2022-07-15 10:15:00,,0831.7,5.00,0.00,29.8,27.7,00.0,38.4,31.6,27.4,0000.0,0009.84,0004.69,0003.97
2022-07-15 10:16:00,,0831.7,4.99,0.00,29.7,27.5,00.0,38.4,31.5,27.3,0000.0,0009.80,0004.65,0003.96
2022-07-15 10:17:00,,0831.7,5.00,0.00,29.6,27.5,00.0,38.4,31.4,27.9,0000.0,0009.33,0004.63,0003.94
2022-07-15 10:18:00,,0831.7,5.01,0.00,29.6,27.6,00.0,38.4,31.4,27.5,0000.0,0009.19,0004.59,0003.92
2022-07-15 10:19:00,,0831.7,4.99,0.00,29.6,27.7,00.0,38.4,31.4,27.4,0000.0,0009.53,0004.58,0003.89
2022-07-15 10:20:00,,0831.7,5.01,0.00,29.6,27.9,00.0,38.4,31.4,27.4,0000.0,0009.72,0004.52,0003.87
2022-07-15 10:21:00,,0831.7,4.99,0.00,29.6,28.0,00.0,38.4,31.4,27.5,0000.0,0009.97,0004.44,0003.83
2022-07-15 10:22:00,,0831.7,5.00,0.00,29.6,28.1,00.0,38.4,31.4,27.5,0000.0,0009.80,0004.39,0003.80
2022-07-15 10:23:00,,0831.7,4.99,0.00,29.6,28.2,00.0,38.4,31.5,27.5,0000.0,0009.33,0004.38,0003.78
2022-07-15 10:24:00,,0831.7,5.00,0.00,29.6,28.3,00.0,38.4,31.5,27.4,0000.0,0009.70,0004.35,0003.77
2022-07-15 10:25:00,,0831.7,4.99,0.00,29.7,28.4,00.0,38.4,31.6,27.6,0000.0,0009.90,0004.32,0003.76
2022-07-15 10:26:00,,0831.8,5.00,0.00,29.7,28.5,00.0,38.4,31.6,27.3,0000.0,0009.88,0004.32,0003.77
2022-07-15 10:27:00,,0831.7,5.01,0.00,29.7,28.6,00.0,38.4,31.6,27.2,0000.0,0009.95,0004.36,0003.77
2022-07-15 10:28:00,,0831.7,4.99,0.00,29.7,28.6,00.0,38.5,31.7,27.2,0000.0,0010.13,0004.36,0003.77
2022-07-15 10:29:00,,0831.7,5.01,0.00,29.8,28.7,00.0,38.5,31.7,27.0,0000.0,0010.91,0004.40,0003.77
2022-07-15 10:30:00,,0831.7,4.99,0.00,29.8,28.7,00.0,38.5,31.7,26.9,0000.0,0010.98,0004.37,0003.76
2022-07-15 10:31:00,,0831.8,5.01,0.00,29.8,28.6,00.0,38.5,31.7,26.9,0000.0,0010.89,0004.38,0003.76
2022-07-15 10:32:00,,0831.8,4.99,0.00,29.8,28.0,00.0,38.4,31.7,26.9,0000.0,0010.29,0004.37,0003.76
2022-07-15 10:33:00,,0831.7,5.01,0.00,29.8,27.5,00.0,38.4,31.6,26.9,0000.0,0010.21,0004.34,0003.76
2022-07-15 10:34:00,,0831.7,5.00,0.00,29.7,27.5,00.0,38.4,31.4,27.0,0000.0,0010.59,0004.33,0003.75
2022-07-15 10:35:00,,0831.7,5.00,0.00,29.6,27.5,00.0,38.4,31.4,27.2,0000.0,0010.64,0004.35,0003.75
2022-07-15 10:36:00,,0831.7,5.01,0.00,29.6,27.6,00.0,38.4,31.4,27.2,0000.0,0010.88,0004.39,0003.75
2022-07-15 10:37:00,,0831.7,5.00,0.00,29.6,27.8,00.0,38.4,31.4,27.1,0000.0,0011.02,0004.43,0003.74
2022-07-15 10:38:00,,0831.7,5.00,0.00,29.6,27.9,00.0,38.4,31.4,27.2,0000.0,0011.12,0004.42,0003.74
2022-07-15 10:39:00,,0831.8,5.00,0.00,29.6,28.1,00.0,38.4,31.4,27.3,0000.0,0011.12,0004.42,0003.74
2022-07-15 10:40:00,,0831.8,5.01,0.00,29.6,28.2,00.0,38.4,31.5,27.3,0000.0,0010.24,0004.37,0003.74
2022-07-15 10:41:00,,0831.8,4.99,0.00,29.6,28.3,00.0,38.4,31.5,27.3,0000.0,0009.97,0004.34,0003.74
2022-07-15 10:42:00,,0831.9,5.01,0.00,29.7,28.4,00.0,38.4,31.5,27.2,0000.0,0009.94,0004.31,0003.74
2022-07-15 10:43:00,,0831.9,4.99,0.00,29.7,28.5,00.0,38.4,31.6,27.1,0000.0,0010.40,0004.32,0003.74
2022-07-15 10:44:00,,0832.0,5.00,0.00,29.7,28.5,00.0,38.5,31.6,27.3,0000.0,0010.97,0004.34,0003.74
2022-07-15 10:45:00,,0831.9,5.01,0.00,29.7,28.6,00.0,38.5,31.7,27.4,0000.0,0011.39,0004.34,0003.76
2022-07-15 10:46:00,,0832.0,4.99,0.00,29.8,28.7,00.0,38.5,31.7,27.4,0000.0,0011.06,0004.35,0003.75
2022-07-15 10:47:00,,0831.9,5.00,0.00,29.8,28.7,00.0,38.5,31.7,27.2,0000.0,0010.43,0004.31,0003.74
2022-07-15 10:48:00,,0831.9,4.99,0.00,29.8,28.8,00.0,38.5,31.8,27.0,0000.0,0010.24,0004.27,0003.73
2022-07-15 10:49:00,,0831.9,5.00,0.00,29.8,28.4,00.0,38.5,31.7,27.0,0000.0,0009.92,0004.24,0003.73
2022-07-15 10:50:00,,0831.9,5.01,0.00,29.8,27.8,00.0,38.4,31.6,27.1,0000.0,0009.52,0004.22,0003.73
2022-07-15 10:51:00,,0832.0,4.99,0.00,29.8,27.6,00.0,38.4,31.5,27.1,0000.0,0009.56,0004.23,0003.73
2022-07-15 10:52:00,,0832.0,5.01,0.00,29.7,27.6,00.0,38.4,31.4,27.2,0000.0,0009.51,0004.23,0003.72
2022-07-15 10:53:00,,0832.0,4.99,0.00,29.6,27.6,00.0,38.4,31.4,27.2,0000.0,0009.18,0004.21,0003.71
2022-07-15 10:54:00,,0832.1,5.00,0.00,29.6,27.8,00.0,38.4,31.4,27.2,0000.0,0008.60,0004.19,0003.70
2022-07-15 10:55:00,,0832.1,5.00,0.00,29.6,27.9,00.0,38.4,31.4,27.2,0000.0,0008.08,0004.17,0003.69
2022-07-15 10:56:00,,0832.1,5.00,0.00,29.6,28.0,00.0,38.4,31.4,27.1,0000.0,0007.60,0004.16,0003.68
2022-07-15 10:57:00,,0832.1,5.00,0.00,29.6,28.1,00.0,38.4,31.4,27.2,0000.0,0007.65,0004.15,0003.69
2022-07-15 10:58:00,,0832.1,4.99,0.00,29.7,28.3,00.0,38.4,31.5,27.4,0000.0,0008.12,0004.17,0003.69
2022-07-15 10:59:00,,0832.1,5.00,0.00,29.7,28.4,00.0,38.4,31.5,28.1,0000.0,0008.28,0004.14,0003.68
